CSN8915 ZHHH-ZSLI

Flight info

Callsign CSN8915
Flight time 1h 1m
Altitude 24600
Route XSH H17 P472
Aircraft A321/M-SDE2E3FGHIRWXY/LB1

Departure

Time 2026-04-18 07:10
Airport Wuhan Tianhe International Airport (ZHHH)

Arrival

Time 2026-04-18 08:11
Airport Lishui Airport (ZSLI)
Time Latitude Longitude Altitude Speed Heading
2026-04-18 07:09 30.83613 114.26176 2681 ft 191 kts 41°
2026-04-18 07:10 30.84696 114.27283 2964 ft 205 kts 41°
2026-04-18 07:10 30.85835 114.28448 3255 ft 220 kts 41°
2026-04-18 07:10 30.87055 114.29699 3488 ft 241 kts 42°
2026-04-18 07:10 30.88405 114.31081 4031 ft 250 kts 41°
2026-04-18 07:11 30.89761 114.32477 4799 ft 251 kts 41°
2026-04-18 07:11 30.91132 114.33884 5569 ft 252 kts 41°
2026-04-18 07:11 30.92423 114.35305 6323 ft 253 kts 52°
2026-04-18 07:11 30.93143 114.37255 7067 ft 256 kts 82°
2026-04-18 07:12 30.92924 114.39335 7761 ft 261 kts 111°
2026-04-18 07:12 30.91882 114.41114 8436 ft 265 kts 131°
2026-04-18 07:12 30.90603 114.42728 9086 ft 270 kts 132°
2026-04-18 07:12 30.89310 114.44341 9739 ft 274 kts 131°
2026-04-18 07:13 30.87954 114.45983 10406 ft 278 kts 140°
2026-04-18 07:13 30.86133 114.46998 11023 ft 282 kts 171°
2026-04-18 07:13 30.84058 114.47008 11463 ft 293 kts 186°
2026-04-18 07:13 30.81859 114.46755 11797 ft 310 kts 187°
2026-04-18 07:14 30.79518 114.46485 12114 ft 327 kts 186°
2026-04-18 07:14 30.77068 114.46243 12410 ft 344 kts 184°
2026-04-18 07:14 30.74539 114.46653 12671 ft 362 kts 159°
2026-04-18 07:14 30.72282 114.48383 12955 ft 376 kts 133°
2026-04-18 07:15 30.70694 114.50991 13243 ft 388 kts 121°
2026-04-18 07:15 30.69243 114.53761 13482 ft 401 kts 120°
2026-04-18 07:15 30.67740 114.56638 13712 ft 414 kts 120°
2026-04-18 07:15 30.66127 114.59679 13936 ft 426 kts 121°
2026-04-18 07:16 30.64477 114.62753 14201 ft 436 kts 121°
2026-04-18 07:16 30.62802 114.65852 14615 ft 440 kts 122°
2026-04-18 07:16 30.61142 114.68922 15055 ft 444 kts 122°
2026-04-18 07:16 30.59476 114.71995 15462 ft 447 kts 122°
2026-04-18 07:17 30.57779 114.75117 15872 ft 451 kts 122°
2026-04-18 07:17 30.56060 114.78271 16271 ft 455 kts 122°
2026-04-18 07:17 30.54263 114.81564 16647 ft 459 kts 122°
2026-04-18 07:17 30.52460 114.84863 17033 ft 462 kts 122°
2026-04-18 07:18 30.50645 114.88181 17388 ft 466 kts 122°
2026-04-18 07:18 30.48854 114.91506 17742 ft 470 kts 120°
2026-04-18 07:18 30.47401 114.95085 18091 ft 472 kts 110°
2026-04-18 07:18 30.46474 114.98883 18470 ft 473 kts 99°
2026-04-18 07:19 30.45984 115.02838 18870 ft 474 kts 95°
2026-04-18 07:19 30.45624 115.06701 19216 ft 476 kts 94°
2026-04-18 07:19 30.45261 115.10745 19565 ft 479 kts 94°
2026-04-18 07:19 30.44877 115.14771 19916 ft 481 kts 95°
2026-04-18 07:20 30.44472 115.18808 20252 ft 484 kts 95°
2026-04-18 07:20 30.44006 115.22778 20575 ft 487 kts 99°
2026-04-18 07:20 30.43060 115.26768 20895 ft 491 kts 109°
2026-04-18 07:20 30.41570 115.30529 21182 ft 494 kts 118°
2026-04-18 07:21 30.39677 115.34040 21477 ft 497 kts 123°
2026-04-18 07:21 30.37691 115.37484 21791 ft 499 kts 124°
2026-04-18 07:21 30.35683 115.40928 22098 ft 500 kts 124°
2026-04-18 07:21 30.33655 115.44423 22364 ft 503 kts 124°
2026-04-18 07:22 30.31620 115.47953 22647 ft 505 kts 123°
2026-04-18 07:22 30.29619 115.51442 22936 ft 507 kts 124°
2026-04-18 07:22 30.27575 115.55017 23222 ft 509 kts 123°
2026-04-18 07:22 30.25532 115.58593 23478 ft 511 kts 124°
2026-04-18 07:23 30.23512 115.62132 23698 ft 513 kts 124°
2026-04-18 07:23 30.21456 115.65723 23915 ft 515 kts 124°
2026-04-18 07:23 30.19443 115.69253 24123 ft 517 kts 124°
2026-04-18 07:23 30.17440 115.72765 24330 ft 518 kts 124°
2026-04-18 07:24 30.15504 115.76151 24487 ft 521 kts 124°
2026-04-18 07:24 30.13450 115.79733 24495 ft 521 kts 125°
2026-04-18 07:24 30.11391 115.83316 24495 ft 520 kts 124°
2026-04-18 07:24 30.09306 115.86938 24495 ft 521 kts 125°
2026-04-18 07:25 30.07250 115.90506 24498 ft 520 kts 125°
2026-04-18 07:25 30.05177 115.94132 24495 ft 521 kts 124°
2026-04-18 07:25 30.03086 115.97827 24494 ft 521 kts 124°
2026-04-18 07:25 30.00987 116.01545 24495 ft 521 kts 124°
2026-04-18 07:26 29.99053 116.04964 24492 ft 521 kts 124°
2026-04-18 07:26 29.96960 116.08659 24489 ft 521 kts 124°
2026-04-18 07:26 29.94928 116.12239 24488 ft 521 kts 124°
2026-04-18 07:26 29.92928 116.15759 24492 ft 522 kts 124°
2026-04-18 07:27 29.90919 116.19292 24487 ft 522 kts 124°
2026-04-18 07:27 29.88878 116.22868 24489 ft 522 kts 125°
2026-04-18 07:27 29.86850 116.26396 24494 ft 522 kts 125°
2026-04-18 07:27 29.84836 116.29894 24499 ft 522 kts 125°
2026-04-18 07:28 29.82804 116.33435 24503 ft 522 kts 125°
2026-04-18 07:28 29.80806 116.36918 24508 ft 522 kts 125°
2026-04-18 07:28 29.78790 116.40439 24509 ft 522 kts 125°
2026-04-18 07:28 29.76768 116.43971 24507 ft 522 kts 125°
2026-04-18 07:29 29.74757 116.47483 24511 ft 522 kts 125°
2026-04-18 07:29 29.72704 116.51064 24511 ft 522 kts 125°
2026-04-18 07:29 29.70653 116.54640 24510 ft 523 kts 125°
2026-04-18 07:29 29.68622 116.58176 24514 ft 523 kts 125°
2026-04-18 07:30 29.66578 116.61732 24517 ft 524 kts 125°
2026-04-18 07:30 29.64507 116.65333 24511 ft 524 kts 126°
2026-04-18 07:30 29.62495 116.68840 24515 ft 524 kts 126°
2026-04-18 07:30 29.60489 116.72333 24505 ft 524 kts 126°
2026-04-18 07:31 29.58472 116.75835 24499 ft 524 kts 126°
2026-04-18 07:31 29.56450 116.79335 24507 ft 524 kts 126°
2026-04-18 07:31 29.54395 116.82888 24508 ft 524 kts 126°
2026-04-18 07:31 29.52360 116.86401 24500 ft 524 kts 126°
2026-04-18 07:32 29.50312 116.89941 24499 ft 524 kts 126°
2026-04-18 07:32 29.48252 116.93492 24501 ft 524 kts 126°
2026-04-18 07:32 29.46200 116.97029 24506 ft 523 kts 126°
2026-04-18 07:32 29.44154 117.00555 24506 ft 523 kts 126°
2026-04-18 07:33 29.42129 117.04037 24509 ft 523 kts 126°
2026-04-18 07:33 29.40094 117.07536 24509 ft 523 kts 126°
2026-04-18 07:33 29.38050 117.11044 24498 ft 523 kts 126°
2026-04-18 07:33 29.35943 117.14497 24490 ft 522 kts 130°
2026-04-18 07:34 29.33571 117.17666 24492 ft 520 kts 137°
2026-04-18 07:34 29.30904 117.20515 24489 ft 516 kts 144°
2026-04-18 07:34 29.28042 117.23080 24508 ft 515 kts 147°
2026-04-18 07:34 29.25127 117.25569 24496 ft 515 kts 148°
2026-04-18 07:35 29.22213 117.28037 24503 ft 515 kts 148°
2026-04-18 07:35 29.19274 117.30533 24502 ft 514 kts 147°
2026-04-18 07:35 29.16297 117.33079 24515 ft 514 kts 147°
2026-04-18 07:35 29.13441 117.35532 24502 ft 514 kts 147°
2026-04-18 07:36 29.10518 117.38047 24500 ft 514 kts 147°
2026-04-18 07:36 29.07570 117.40584 24503 ft 514 kts 147°
2026-04-18 07:36 29.04660 117.43082 24499 ft 515 kts 147°
2026-04-18 07:36 29.01782 117.45541 24504 ft 514 kts 147°
2026-04-18 07:37 28.98843 117.48050 24500 ft 514 kts 148°
2026-04-18 07:37 28.95922 117.50549 24501 ft 515 kts 147°
2026-04-18 07:37 28.92996 117.53063 24504 ft 515 kts 147°
2026-04-18 07:37 28.90126 117.55529 24512 ft 515 kts 147°
2026-04-18 07:38 28.87233 117.58009 24520 ft 515 kts 148°
2026-04-18 07:38 28.84322 117.60498 24527 ft 514 kts 148°
2026-04-18 07:38 28.81460 117.62947 24538 ft 513 kts 148°
2026-04-18 07:38 28.78554 117.65434 24532 ft 513 kts 148°
2026-04-18 07:39 28.75699 117.67893 24535 ft 512 kts 148°
2026-04-18 07:39 28.72832 117.70365 24551 ft 512 kts 148°
2026-04-18 07:39 28.69947 117.72846 24558 ft 513 kts 148°
2026-04-18 07:39 28.67048 117.75334 24550 ft 514 kts 148°
2026-04-18 07:40 28.64144 117.77824 24554 ft 513 kts 148°
2026-04-18 07:40 28.61246 117.80302 24557 ft 513 kts 148°
2026-04-18 07:40 28.58362 117.82762 24542 ft 514 kts 148°
2026-04-18 07:40 28.55511 117.85194 24540 ft 514 kts 148°
2026-04-18 07:41 28.52628 117.87653 24530 ft 513 kts 148°
2026-04-18 07:41 28.49694 117.90153 24529 ft 513 kts 148°
2026-04-18 07:41 28.46824 117.92598 24523 ft 513 kts 148°
2026-04-18 07:41 28.44000 117.95160 24518 ft 516 kts 144°
2026-04-18 07:42 28.41370 117.98045 24517 ft 521 kts 138°
2026-04-18 07:42 28.38972 118.01272 24511 ft 526 kts 131°
2026-04-18 07:42 28.36810 118.04631 24512 ft 527 kts 129°
2026-04-18 07:42 28.34690 118.08044 24514 ft 527 kts 129°
2026-04-18 07:43 28.32562 118.11491 24525 ft 528 kts 129°
2026-04-18 07:43 28.30419 118.14950 24534 ft 528 kts 129°
2026-04-18 07:43 28.28273 118.18393 24531 ft 527 kts 129°
2026-04-18 07:43 28.26157 118.21769 24541 ft 526 kts 129°
2026-04-18 07:44 28.24009 118.25187 24538 ft 526 kts 129°
2026-04-18 07:44 28.21875 118.28573 24542 ft 526 kts 130°
2026-04-18 07:44 28.19717 118.31994 24548 ft 525 kts 129°
2026-04-18 07:44 28.17579 118.35381 24556 ft 526 kts 130°
2026-04-18 07:45 28.15435 118.38775 24556 ft 525 kts 130°
2026-04-18 07:45 28.13253 118.42226 24544 ft 525 kts 130°
2026-04-18 07:45 28.11141 118.45597 24546 ft 528 kts 128°
2026-04-18 07:45 28.09417 118.49364 24546 ft 536 kts 114°
2026-04-18 07:46 28.08466 118.53495 24539 ft 541 kts 100°
2026-04-18 07:46 28.08296 118.57819 24555 ft 544 kts 90°
2026-04-18 07:46 28.08396 118.62114 24554 ft 543 kts 88°
2026-04-18 07:46 28.08544 118.66432 24556 ft 543 kts 89°
2026-04-18 07:47 28.08680 118.70694 24561 ft 543 kts 89°
2026-04-18 07:47 28.08798 118.74991 24566 ft 542 kts 90°
2026-04-18 07:47 28.08895 118.79282 24566 ft 543 kts 90°
2026-04-18 07:47 28.08977 118.83575 24564 ft 543 kts 90°
2026-04-18 07:48 28.09051 118.87862 24562 ft 544 kts 90°
2026-04-18 07:48 28.09122 118.92127 24526 ft 540 kts 90°
2026-04-18 07:48 28.09193 118.96406 24053 ft 533 kts 90°
2026-04-18 07:48 28.09258 119.00558 23210 ft 529 kts 90°
2026-04-18 07:49 28.09322 119.04718 22368 ft 523 kts 90°
2026-04-18 07:49 28.09382 119.08839 21582 ft 517 kts 90°
2026-04-18 07:49 28.09440 119.12926 20793 ft 512 kts 90°
2026-04-18 07:49 28.09500 119.16939 19998 ft 507 kts 89°
2026-04-18 07:50 28.09555 119.20908 19251 ft 502 kts 89°
2026-04-18 07:50 28.09609 119.24824 18518 ft 496 kts 89°
2026-04-18 07:50 28.09664 119.28770 17749 ft 492 kts 89°
2026-04-18 07:50 28.09715 119.32592 17046 ft 486 kts 89°
2026-04-18 07:51 28.09763 119.36410 16385 ft 479 kts 89°
2026-04-18 07:51 28.09810 119.40151 15735 ft 473 kts 89°
2026-04-18 07:51 28.09856 119.43874 15077 ft 467 kts 89°
2026-04-18 07:51 28.09900 119.47502 14453 ft 460 kts 88°
2026-04-18 07:52 28.09948 119.51105 13818 ft 453 kts 88°
2026-04-18 07:52 28.10145 119.54650 13175 ft 446 kts 82°
2026-04-18 07:52 28.10710 119.58079 12513 ft 439 kts 74°
2026-04-18 07:52 28.11592 119.61341 11846 ft 432 kts 70°
2026-04-18 07:53 28.12589 119.64562 11328 ft 422 kts 69°
2026-04-18 07:53 28.13525 119.67537 10938 ft 409 kts 69°
2026-04-18 07:53 28.14458 119.70536 10731 ft 392 kts 69°
2026-04-18 07:53 28.15337 119.73390 10548 ft 376 kts 69°
2026-04-18 07:54 28.16181 119.76144 10387 ft 360 kts 69°
2026-04-18 07:54 28.16982 119.78768 10225 ft 342 kts 69°
2026-04-18 07:54 28.17726 119.81215 10102 ft 315 kts 69°
2026-04-18 07:54 28.18435 119.83544 9954 ft 301 kts 69°
2026-04-18 07:55 28.19104 119.85741 9375 ft 297 kts 69°
2026-04-18 07:55 28.19794 119.88001 9148 ft 303 kts 68°
2026-04-18 07:55 28.20757 119.90089 8852 ft 296 kts 44°
2026-04-18 07:55 28.22419 119.91348 8540 ft 281 kts 14°
2026-04-18 07:56 28.24314 119.91582 8218 ft 264 kts 349°
2026-04-18 07:56 28.25984 119.90947 7908 ft 245 kts 329°
2026-04-18 07:56 28.27430 119.89989 7639 ft 235 kts 327°
2026-04-18 07:56 28.28818 119.89043 7310 ft 227 kts 328°
2026-04-18 07:57 28.30159 119.88142 7041 ft 215 kts 328°
2026-04-18 07:57 28.31394 119.87322 7071 ft 196 kts 328°
2026-04-18 07:57 28.32562 119.86552 7070 ft 193 kts 328°
2026-04-18 07:57 28.33731 119.85783 7000 ft 191 kts 328°
2026-04-18 07:58 28.35873 119.84027 6864 ft 190 kts 303°
2026-04-18 07:58 28.36252 119.82606 6872 ft 192 kts 273°
2026-04-18 07:58 28.35944 119.81110 6882 ft 196 kts 250°
2026-04-18 07:59 28.35392 119.79697 6872 ft 197 kts 248°
2026-04-18 07:59 28.34813 119.78281 6861 ft 197 kts 248°
2026-04-18 07:59 28.34236 119.76863 6863 ft 197 kts 248°
2026-04-18 07:59 28.33659 119.75434 6869 ft 197 kts 249°
2026-04-18 08:00 28.33091 119.74017 6864 ft 197 kts 248°
2026-04-18 08:00 28.32524 119.72593 6862 ft 197 kts 248°
2026-04-18 08:00 28.31953 119.71159 6864 ft 198 kts 249°
2026-04-18 08:00 28.31391 119.69746 6861 ft 196 kts 249°
2026-04-18 08:01 28.30822 119.68309 6866 ft 197 kts 249°
2026-04-18 08:01 28.30265 119.66906 6865 ft 197 kts 248°
2026-04-18 08:01 28.29706 119.65502 6862 ft 184 kts 249°
2026-04-18 08:01 28.29201 119.64245 6824 ft 164 kts 249°
2026-04-18 08:02 28.28742 119.63090 6868 ft 159 kts 249°
2026-04-18 08:02 28.28287 119.61944 6862 ft 157 kts 249°
2026-04-18 08:02 28.27837 119.60803 6773 ft 158 kts 249°
2026-04-18 08:02 28.27386 119.59668 6556 ft 156 kts 249°
2026-04-18 08:03 28.26940 119.58543 6364 ft 155 kts 249°
2026-04-18 08:03 28.26427 119.57439 6146 ft 158 kts 234°
2026-04-18 08:03 28.25501 119.56760 5882 ft 161 kts 197°
2026-04-18 08:03 28.24383 119.56750 5701 ft 163 kts 165°
2026-04-18 08:04 28.23444 119.57408 5394 ft 158 kts 121°
2026-04-18 08:04 28.23274 119.58569 4930 ft 149 kts 70°
2026-04-18 08:04 28.23711 119.59650 4794 ft 152 kts 62°
2026-04-18 08:04 28.24165 119.60747 4786 ft 152 kts 63°
2026-04-18 08:05 28.24547 119.61877 4711 ft 154 kts 70°
2026-04-18 08:05 28.24863 119.63028 4506 ft 152 kts 69°
2026-04-18 08:05 28.25272 119.64141 4306 ft 150 kts 62°
2026-04-18 08:05 28.25772 119.65177 4111 ft 150 kts 57°
2026-04-18 08:06 28.26340 119.66173 3916 ft 149 kts 55°
2026-04-18 08:06 28.26925 119.67139 3728 ft 149 kts 53°
2026-04-18 08:06 28.27522 119.68110 3528 ft 148 kts 54°
2026-04-18 08:06 28.28117 119.69074 3337 ft 148 kts 54°
2026-04-18 08:07 28.28716 119.70035 3140 ft 148 kts 54°
2026-04-18 08:07 28.29299 119.70984 2931 ft 147 kts 55°
2026-04-18 08:07 28.29888 119.71945 2723 ft 147 kts 54°
2026-04-18 08:07 28.30473 119.72886 2542 ft 147 kts 54°
2026-04-18 08:08 28.31070 119.73838 2350 ft 146 kts 54°
2026-04-18 08:08 28.31657 119.74783 2169 ft 146 kts 55°
2026-04-18 08:08 28.32240 119.75719 1981 ft 145 kts 54°
2026-04-18 08:08 28.32827 119.76662 1797 ft 145 kts 55°
2026-04-18 08:09 28.33403 119.77604 1609 ft 145 kts 55°
2026-04-18 08:09 28.33988 119.78541 1413 ft 145 kts 55°
2026-04-18 08:09 28.34571 119.79471 1221 ft 144 kts 55°
2026-04-18 08:09 28.35145 119.80399 1033 ft 144 kts 54°
2026-04-18 08:10 28.35729 119.81329 845 ft 143 kts 54°
2026-04-18 08:10 28.36269 119.82209 663 ft 143 kts 54°
2026-04-18 08:10 28.36823 119.83095 565 ft 129 kts 54°
2026-04-18 08:10 28.37265 119.83807 563 ft 83 kts 55°
2026-04-18 08:11 28.37514 119.84210 562 ft 41 kts 55°
2026-04-18 08:11 28.37598 119.84322 562 ft 9 kts 21°
2026-04-18 08:11 28.37654 119.84358 562 ft 8 kts 62°
2026-04-18 08:11 28.37615 119.84370 562 ft 10 kts 217°
2026-04-18 08:12 28.37569 119.84301 562 ft 11 kts 236°
2026-04-18 08:12 28.37521 119.84223 562 ft 12 kts 235°
2026-04-18 08:12 28.37467 119.84135 562 ft 15 kts 235°
2026-04-18 08:12 28.37399 119.84026 562 ft 18 kts 235°
2026-04-18 08:13 28.37326 119.83909 562 ft 18 kts 235°
2026-04-18 08:13 28.37261 119.83804 562 ft 10 kts 238°
2026-04-18 08:13 28.37268 119.83727 563 ft 11 kts 312°
2026-04-18 08:13 28.37325 119.83678 563 ft 8 kts 326°
2026-04-18 08:14 28.37376 119.83638 562 ft 9 kts 324°
2026-04-18 08:14 28.37411 119.83607 562 ft 5 kts 316°
2026-04-18 08:14 28.37445 119.83577 562 ft 5 kts 326°
2026-04-18 08:14 28.37456 119.83568 562 ft 2 kts 325°
2026-04-18 08:15 28.37464 119.83562 562 ft 0 kts 324°